Regional Weather Roundup
Issued by NWS

Home | Current Version | Previous Version | Graphics & Text | Print | Product List | Glossary On
Versions: 1 2 3 4 5 6 7 8 9 10 11 12 13 14 15 16 17 18 19 20 21 22 23 24 25 26 27 28 29 30 31 32 33 34 35 36 37 38 39 40 41 42 43 44 45 46 47 48 49 50
000
ASUS43 KDTX 201310
RWRMI
MICHIGAN HOURLY REGIONAL WEATHER ROUNDUP
NATIONAL WEATHER SERVICE DETROIT/PONTIAC MI
ISSUED BY NATIONAL WEATHER SERVICE GRAND RAPIDS MI
900 AM EDT SUN AUG 20 2017

NOTE: "FAIR" INDICATES FEW OR NO CLOUDS BELOW 12,000 FEET WITH NO
SIGNIFICANT WEATHER AND/OR OBSTRUCTION TO VISIBILITY.

MIZ047>049-052>055-059>063-066>070-074>076-081>083-201400-
SOUTHEAST LOWER MICHIGAN

CITY           SKY/WX    TMP DP  RH WIND       PRES   REMARKS
ADRIAN         SUNNY     63  61  93 CALM      30.11R
ALMA           SUNNY     63  60  89 CALM      30.09S
ANN ARBOR      SUNNY     65  62  90 CALM      30.10R
BAD AXE        SUNNY     66  62  85 SW3       30.08R
DETROIT CITY   SUNNY     70  63  78 CALM      30.09R
DETROIT        SUNNY     69  62  78 S3        30.11R
FLINT          SUNNY     66  60  81 CALM      30.10R
GROSSE ILE     SUNNY     69  62  77 CALM      30.09R
HILLSDALE      SUNNY     64  59  82 CALM      30.11R
HOWELL         SUNNY     66  60  81 SW3       30.10R

CITY           SKY/WX    TMP DP  RH WIND       PRES   REMARKS
JACKSON        SUNNY     65  60  84 CALM      30.10R
LANSING        SUNNY     66  59  78 S3        30.09R
MASON          SUNNY     64  62  93 CALM      30.10S
MONROE         SUNNY     66  62  88 CALM      30.10R
MT. CLEMENS    SUNNY     72  63  73 CALM      30.08R
PONTIAC        SUNNY     67  62  84 CALM      30.09R
PORT HOPE        N/A     68  61  78 SW9       30.03R
PORT HURON     SUNNY     68  63  83 CALM      30.10R
TRI CITIES     SUNNY     65  61  87 SW9       30.09R
YPSILANTI      SUNNY     68  65  90 CALM      30.10R
$$
MIZ043>046-050>051-056>058-064>065-071>073-077>080-201400-
SOUTHWEST LOWER MICHIGAN

CITY           SKY/WX    TMP DP  RH WIND       PRES   REMARKS
BATTLE CREEK   SUNNY     66  60  81 CALM      30.10R
BENTON HARBOR  SUNNY     67  60  78 SE5       30.06S
BIG RAPIDS     SUNNY     62  61  96 E7        30.07R
COLDWATER      SUNNY     67  63  86 S3        30.10R
HOLLAND        SUNNY     66  59  78 S5        30.07S
GRAND RAPIDS   MOSUNNY   64  60  87 SE3       30.07F
KALAMAZOO      SUNNY     66  61  84 S5        30.09S
MARSHALL       SUNNY     63  61  95 CALM      30.09S
MOUNT PLEASANT SUNNY     70  56  62 W3        30.06S
MUSKEGON       MOSUNNY   68  63  84 E3        30.06R
STURGIS        SUNNY     66  61  83 S3        30.10R
$$
MIZ016>042-201400-
NORTHERN LOWER MICHIGAN

CITY           SKY/WX    TMP DP  RH WIND       PRES   REMARKS
ALPENA         SUNNY     67  64  90 VRB3      30.02R
BEAVER ISLAND  SUNNY     69  65  89 SW9       30.00R
BELLAIRE       SUNNY     67  62  85 S5        30.03R
CADILLAC       SUNNY     67  62  85 SW3       30.07R
CHARLEVOIX     SUNNY     68  67  96 SW5       30.04R
GAYLORD        SUNNY     65  60  84 SW9       30.05R
HOUGHTON LAKE  SUNNY     66  60  81 W6        30.07R
MANISTEE       SUNNY     65  63  93 CALM      30.03S
OSCODA         SUNNY     71  62  73 W8        30.03R
PELLSTON       SUNNY     70  64  81 CALM      30.01R
TRAVERSE CITY  MOSUNNY   69  63  81 SW6       30.01S
LUDINGTON      SUNNY     71  63  74 SW6       30.04R
$$
MIZ007>008-015-201400-
EASTERN UPPER MICHIGAN

CITY           SKY/WX    TMP DP  RH WIND       PRES   REMARKS
KINROSS        FOG       64  64 100 VRB5      30.00R VSB 1/4
MACKINAC ISLAN MOSUNNY   67  67 100 SW7       30.00R
NEWBERRY       SUNNY     64  63  97 S8        29.98R
S. S. MARIE    FOG       60  60 100 CALM      29.99R VSB<1/4
$$
MIZ004>006-011>014-085-201400-
CENTRAL UPPER MICHIGAN

CITY           SKY/WX    TMP DP  RH WIND       PRES   REMARKS
MANISTIQUE     SUNNY     65  60  81 CALM      29.98S
ESCANABA       SUNNY     64  61  90 SW6       29.98S
MENOMINEE      SUNNY     66  60  81 W5        30.00S
SAWYER-GWINN   SUNNY     59  57  94 S3        29.98S
$$
MIZ001>003-009>011-084-201400-
WESTERN UPPER MICHIGAN

CITY           SKY/WX    TMP DP  RH WIND       PRES   REMARKS
IRON MOUNTAIN  SUNNY     64  58  80 CALM      29.97F
HOUGHTON       SUNNY     64  59  82 VRB3      29.92R
COPPER HARBOR    N/A     68  59  73 VRB7      29.89R
IRONWOOD       SUNNY     65  60  84 S10       29.93S
$$

ABBREVIATIONS USED IN REMARKS
   TC - TEMPERATURE IN CELSIUS
  WCI - WIND CHILL INDEX
   HX - HEAT INDEX
  VSB - VISIBILITY





USA.gov is the U.S. government's official web portal to all federal, state and local government web resources and services.